Regional Weather Roundup
Issued by NWS

Home | Current Version | Previous Version | Graphics & Text | Print | Product List | Glossary On
Versions: 1 2 3 4 5 6 7 8 9 10 11 12 13 14 15 16 17 18 19 20 21 22 23 24 25 26 27 28 29 30 31 32 33 34 35 36 37 38 39 40 41 42 43 44 45 46 47 48 49 50
635
ASUS43 KOAX 070502
RWRNE

WEATHER ROUNDUP FOR NEBRASKA
NATIONAL WEATHER SERVICE OMAHA NE
1100 PM CST TUE DEC 06 2016

NOTES: SATELLITE DATA IS BEING USED TO AUGMENT CLOUD COVER ABOVE
       12000 FEET.
       "FAIR" INDICATES FEW OR NO CLOUDS BELOW 12,000 FEET WITH NO
       SIGNIFICANT WEATHER AND/OR OBSTRUCTIONS TO VISIBILITY.

  * THESE STATIONS DO NOT REPORT WEATHER SUCH AS RAIN...SNOW OR FOG.

NEZ001>004-019>022-054>056-070600-
NEBRASKA PANHANDLE

CITY           SKY/WX    TMP DP  RH WIND       PRES   REMARKS
SCOTTSBLUFF    CLOUDY    17   3  54 CALM      30.03R
ALLIANCE       CLOUDY    12   4  70 N5        30.03R WCI   4
CHADRON        CLOUDY    10   1  67 W7        30.11R WCI  -1
KIMBALL        CLOUDY    19  13  79 E9        29.92F WCI   8
SIDNEY         CLOUDY    19   5  54 E10       30.00S WCI   7
$$

NEZ057>060-069>072-079>082-070600-
SOUTHWEST NEBRASKA

CITY           SKY/WX    TMP DP  RH WIND       PRES   REMARKS
NORTH PLATTE   CLOUDY    20   5  52 NE7       30.11R WCI  11
IMPERIAL       LGT SNOW  24  17  74 CALM      30.07R
LEXINGTON      CLOUDY    24   7  48 N7        30.12R WCI  16
MCCOOK         CLOUDY    26   9  48 NE5       30.08R WCI  20
OGALLALA       CLOUDY    24   7  48 NE6       30.06R WCI  16
$$

NEZ005>010-023>029-035>040-094-070600-
NORTH CENTRAL NEBRASKA

CITY           SKY/WX    TMP DP  RH WIND       PRES   REMARKS
VALENTINE      CLOUDY     8  -1  66 NW12      30.13R WCI  -7
AINSWORTH      CLOUDY    10   2  70 W8        30.12S WCI  -2
BROKEN BOW     CLOUDY    19   7  59 N14       30.11R WCI   6
O`NEILL        CLEAR     13   5  70 NW13      30.13R WCI  -1
ORD            CLOUDY    17   4  56 NW14      30.14R WCI   3
$$

NEZ041-046>049-061>064-073>077-083>087-070600-
SOUTH CENTRAL NEBRASKA

CITY           SKY/WX    TMP DP  RH WIND       PRES   REMARKS
GRAND ISLAND   MOCLDY    22   9  57 NW9       30.14R WCI  12
AURORA         CLOUDY    22  10  61 N7        30.13S WCI  13
HASTINGS       MOCLDY    23   9  55 N8        30.14R WCI  14
HEBRON         MOCLDY    25  15  66 NW3       30.15S
HOLDREGE       CLOUDY    22  10  60 NE5       30.12R WCI  16
KEARNEY *      CLOUDY    23   3  42 N7        30.13R WCI  15
YORK           CLOUDY    23  10  58 N10       30.14R WCI  12
$$

NEZ011>018-030>034-042>045-070600-
NORTHEAST NEBRASKA

CITY           SKY/WX    TMP DP  RH WIND       PRES   REMARKS
NORFOLK        PTCLDY    16   5  62 NW15      30.13R WCI   1
ALBION         PTCLDY    18   6  59 NW14G23   30.15R WCI   5
BLAIR          CLEAR     22  13  67 NW7       30.13R WCI  14
FREMONT        CLOUDY    21  12  69 W9        30.15R WCI  10
TEKAMAH        PTCLDY    20  10  65 NW12      30.15R WCI   8
WAYNE          PTCLDY    15   8  73 NW10      30.12R WCI   3
$$

NEZ050>053-065>068-078-088>093-070600-
SOUTHEAST NEBRASKA

CITY           SKY/WX    TMP DP  RH WIND       PRES   REMARKS
LINCOLN        CLOUDY    26   9  48 NW9       30.17R WCI  17
OMAHA EPPLEY   PTCLDY    22  10  60 NW9       30.15R WCI  12
BEATRICE       CLOUDY    25  18  74 NW3       30.15R
FALLS CITY     PTCLDY    24  16  71 NW5       30.15R WCI  18
NEBRASKA CITY  PTCLDY    26   8  48 NW7       30.15R WCI  18
$$

NEZ044-045-051>053-067-070600-
OMAHA AREA

CITY           SKY/WX    TMP DP  RH WIND       PRES   REMARKS
OMAHA EPPLEY   PTCLDY    22  10  60 NW9       30.15R WCI  12
BLAIR          CLEAR     22  13  67 NW7       30.13R WCI  14
FREMONT        CLOUDY    21  12  69 W9        30.15R WCI  10
MILLARD        PTCLDY    26  10  50 NW14      30.15R WCI  14
OFFUTT AFB     PTCLDY    24  10  54 NW13      30.14R WCI  13
WAHOO          FAIR      23  11  59 NW12      30.15R WCI  12
$$




USA.gov is the U.S. government's official web portal to all federal, state and local government web resources and services.